Waco, TX

9:03 PM CDT on June 25, 2017 (GMT -0500)
Waco Regional

Weather History for KACT - June, 2013

Change the Weather History Date:

Monday, June 10, 2013

  Actual Average Record
Temperature  
Mean Temperature 83 °F 80 °F  
Max Temperature 97 °F 91 °F 102 °F (1911)
Min Temperature 68 °F 70 °F 58 °F (1955)
Degree Days  
Heating Degree Days 0 0  
Month to date heating degree days 0 0  
Since 1 June heating degree days 0 0  
Since 1 July heating degree days 2023 2142  
Cooling Degree Days 18 15  
Month to date cooling degree days 136 144  
Year to date cooling degree days 553 596  
Since 1 June cooling degree days 136 144  
Growing Degree Days 32 (Base 50)    
Moisture  
Dew Point 66 °F    
Average Humidity 64    
Maximum Humidity 97    
Minimum Humidity 30    
Precipitation  
Precipitation 0.00 in 0.14 in 1.85 in (1941)
Month to date precipitation 1.52 1.40  
Year to date precipitation 15.61 16.29  
Sea Level Pressure  
Sea Level Pressure 29.93 in    
Wind  
Wind Speed 7 mph (South)    
Max Wind Speed 16 mph    
Max Gust Speed 20 mph    
Visibility 10 miles    
Events      
T = Trace of Precipitation, MM = Missing Value Source: NWS Daily Summary

Daily Weather History Graph

Daily Weather History Graph

Search for Another Location

Airport or City:

Trip Planner

Search our weather history database for the weather conditions in past years. The results will help you decide how hot, cold, wet, or windy it might be!

Date:

Astronomy

Jun. 10, 2013 Rise Set
Actual Time 6:23 AM CDT 8:33 PM CDT
Civil Twilight 5:55 AM CDT 9:01 PM CDT
Nautical Twilight 5:21 AM CDT 9:35 PM CDT
Astronomical Twilight 4:44 AM CDT 10:12 PM CDT
Moon 8:08 AM CDT (6/10) 10:07 PM CDT (6/10)
Length of Visible Light 15h 06m
Length of Day
14h 10m
Waxing Crescent, 4% of the Moon is Illuminated
Jun 10
Waxing Crescent
Jun 16
First Quarter
Jun 23
Full
Jun 29
Last Quarter
Jul 8
New

Hourly Weather History & Observations

Time (CDT) Temp. Heat Index Dew Point Humidity Pressure Visibility Wind Dir Wind Speed Gust Speed Precip Events Conditions
12:51 AM 70.0 °F - 68.0 °F 93% 29.93 in 10.0 mi SW 3.5 mph - N/A   Clear
1:51 AM 69.1 °F - 66.9 °F 93% 29.94 in 10.0 mi Calm Calm - N/A   Clear
2:51 AM 68.0 °F - 66.9 °F 96% 29.93 in 10.0 mi SSW 4.6 mph - N/A   Clear
3:51 AM 71.1 °F - 68.0 °F 90% 29.93 in 10.0 mi SSW 6.9 mph - N/A   Clear
4:51 AM 69.1 °F - 66.0 °F 90% 29.94 in 10.0 mi SSW 4.6 mph - N/A   Clear
5:51 AM 68.0 °F - 66.0 °F 93% 29.95 in 10.0 mi WSW 4.6 mph - N/A   Clear
6:51 AM 69.1 °F - 66.9 °F 93% 29.96 in 10.0 mi Calm Calm - N/A   Clear
7:51 AM 73.0 °F - 70.0 °F 90% 29.97 in 10.0 mi SW 3.5 mph - N/A   Clear
8:51 AM 78.1 °F - 71.1 °F 79% 29.97 in 10.0 mi SSW 5.8 mph - N/A   Clear
9:51 AM 82.9 °F 87.0 °F 70.0 °F 65% 29.97 in 10.0 mi SW 6.9 mph - N/A   Clear
10:51 AM 87.1 °F 92.8 °F 71.1 °F 59% 29.97 in 10.0 mi SSE 5.8 mph - N/A   Clear
11:51 AM 90.0 °F 93.6 °F 68.0 °F 48% 29.96 in 10.0 mi SSE 8.1 mph - N/A   Clear
12:51 PM 91.9 °F 95.4 °F 66.9 °F 44% 29.94 in 10.0 mi South 10.4 mph - N/A   Clear
1:51 PM 93.9 °F 96.1 °F 64.9 °F 38% 29.93 in 10.0 mi SSW 9.2 mph - N/A   Clear
2:51 PM 95.0 °F 96.0 °F 63.0 °F 34% 29.91 in 10.0 mi South 10.4 mph - N/A   Clear
3:51 PM 96.1 °F 96.0 °F 60.1 °F 30% 29.91 in 10.0 mi Variable 5.8 mph - N/A   Clear
4:51 PM 96.1 °F 96.9 °F 62.1 °F 32% 29.90 in 10.0 mi SSE 9.2 mph - N/A   Clear
5:51 PM 93.9 °F 94.0 °F 61.0 °F 33% 29.89 in 10.0 mi SE 5.8 mph - N/A   Clear
6:51 PM 93.0 °F 92.3 °F 59.0 °F 32% 29.88 in 10.0 mi SSE 9.2 mph - N/A   Clear
7:51 PM 90.0 °F 89.1 °F 59.0 °F 35% 29.90 in 10.0 mi SSE 8.1 mph - N/A   Clear
8:51 PM 86.0 °F 86.3 °F 62.1 °F 44% 29.90 in 10.0 mi SSE 10.4 mph - N/A   Clear
9:51 PM 84.9 °F 86.6 °F 64.9 °F 51% 29.91 in 10.0 mi SSE 11.5 mph - N/A   Clear
10:51 PM 82.9 °F 85.0 °F 66.0 °F 56% 29.93 in 10.0 mi SSE 10.4 mph - N/A   Clear
11:51 PM 82.0 °F 85.9 °F 70.0 °F 67% 29.94 in 10.0 mi SSE 10.4 mph 19.6 mph N/A   Clear